Location: Miles
(41.4492°N, 81.6087°W)
Time: 07:17:02
(UTC+00:00)

Vanguard 1 Rocket - Pass Details

Date: 17 September 2024
Orbit: 650 x 4218 km, 34.3° (Epoch: 05 October)

Event Time Altitude Azimuth Distance (km) Brightness Sun altitude
Rises 15:06:10 0° 284° (WNW) 7,727 11.7 40.2°
Reaches altitude 10° 15:11:39 10° 278° (W) 7,019 11.6 40.9°
Maximum altitude 15:33:03 38° 221° (SW) 5,370 11.8 43.6°
Drops below altitude 10° 15:52:45 10° 162° (SSE) 6,404 12.7 45.8°
Sets 15:57:34 0° 154° (SSE) 7,009 12.6 46.2°
